Location: アルンシュタイン
(50.0000°N, 10.0000°E)
Time: 05:20:18
(UTC+01:00)

Envisat - Pass Details

Date: 25 October 2021
Orbit: 764 x 766 km, 98.2° (Epoch: 04 December)

Event Time Altitude Azimuth Distance (km) Brightness Sun altitude
Rises 07:18:28 0° 9° (N) 3,246 6.2 -7.0°
Reaches altitude 10° 07:20:51 10° 3° (N) 2,315 5.4 -6.6°
Maximum altitude 07:25:41 44° 293° (WNW) 1,049 3.3 -5.9°
Drops below altitude 10° 07:30:28 10° 222° (SW) 2,299 5.2 -5.1°
Sets 07:32:50 0° 216° (SW) 3,220 6.0 -4.8°
